Find Starlink 11191

NORAD ID: 60410 Int'l Des: 2024-141 Owner: SPXS Country: US Constellation: starlink operational
LEOCIRCULAR

リアルタイム位置

3D地球を読み込み中...

Starlink 11191について

説明を読み込み中...

次回通過

Passes for default location (London). Set your location on the main map for personalized predictions.

高度履歴

Loading altitude history...

軌道要素

1 60410U 24141N 26125.47897419 -.00001906 00000-0 -10869-4 0 9994
2 60410 53.1595 166.2069 0000830 104.4315 255.6795 15.69739720100661
Epoch: May 5, 2026 • Age: 12 hours

現在のステータス

高度 368.1 km
速度 7.69 km/s
衛星直下点 -27.10°S, 76.13°W
打ち上げ日 Aug 10, 2024
運用期間 1.7 years
タイプ internet

技術仕様

分類 Payload
質量 960.00 kg
乾燥質量 910.00 kg
総質量 960.00 kg
長さ 0.30 m
直径 4.10 m
スパン 29.00 m
形状 Box + pan
製造者 SPXS
バスタイプ Starlink V2MD
フェーズステータス In Orbit
所有者/国 SPXS/US

Most Searched